EW1214 Weather Reports


Display with metric or nautical units.
time (UTC)temp
F
wind
direction
speed
MPH
gust
MPH
rain 1hr
in
rain 24hr
in
rain mn
in
humidity
%
barometer
mb
20260902203503 94 223 1.0 6.0 0.00 0.00 0.00 53 1017.5
20260902203006 94 166 1.0 6.0 0.00 0.00 0.00 55 1017.4
20260902202502 94 264 1.0 5.0 0.00 0.00 0.00 52 1017.5
20260902202004 93 248 0.0 3.0 0.00 0.00 0.00 56 1017.6
20260902201506 93 248 1.0 4.0 0.00 0.00 0.00 56 1017.5
20260902201002 94 248 1.0 8.0 0.00 0.00 0.00 50 1017.5
20260902200503 94 227 3.0 8.0 0.00 0.00 0.00 49 1017.6
20260902200006 95 196 1.0 7.0 0.00 0.00 0.00 51 1017.6
20260902195502 94 214 0.0 7.0 0.00 0.00 0.00 53 1017.7
20260902195003 94 238 3.0 6.0 0.00 0.00 0.00 52 1017.7
20260902194513 94 150 0.0 8.0 0.00 0.00 0.00 53 1017.8
20260902194003 94 201 1.0 15.0 0.00 0.00 0.00 51 1017.9
20260902193503 95 205 5.0 15.0 0.00 0.00 0.00 51 1017.9
20260902193006 94 233 1.0 7.0 0.00 0.00 0.00 53 1018.0
20260902192503 93 244 1.0 4.0 0.00 0.00 0.00 53 1018.0
20260902192003 92 211 1.0 8.0 0.00 0.00 0.00 55 1018.1
20260902191506 93 257 1.0 8.0 0.00 0.00 0.00 52 1018.1
20260902191002 93 247 3.0 9.0 0.00 0.00 0.00 55 1018.2
20260902190503 93 246 3.0 10.0 0.00 0.00 0.00 52 1018.2
20260902190006 94 242 5.0 10.0 0.00 0.00 0.00 51 1018.2
20260902185503 95 236 1.0 7.0 0.00 0.00 0.00 54 1018.2
20260902185001 94 273 2.0 7.0 0.00 0.00 0.00 51 1018.2
20260902184507 94 187 0.0 10.0 0.00 0.00 0.00 51 1018.3
20260902184004 94 194 2.0 11.0 0.00 0.00 0.00 55 1018.4
20260902183505 94 198 1.0 11.0 0.00 0.00 0.00 53 1018.4
20260902183009 94 233 5.0 9.0 0.00 0.00 0.00 51 1018.4
20260902182501 94 229 3.0 11.0 0.00 0.00 0.00 52 1018.5
20260902182004 94 229 1.0 11.0 0.00 0.00 0.00 54 1018.6
20260902181508 93 206 3.0 9.0 0.00 0.00 0.00 54 1018.5
20260902181002 93 253 4.0 9.0 0.00 0.00 0.00 53 1018.6
20260902180502 92 315 3.0 13.0 0.00 0.00 0.00 53 1018.6
20260902180010 93 232 5.0 13.0 0.00 0.00 0.00 55 1018.6
20260902175506 93 271 3.0 10.0 0.00 0.00 0.00 52 1018.6
20260902175006 93 219 4.0 10.0 0.00 0.00 0.00 51 1018.7
20260902174509 94 198 2.0 13.0 0.00 0.00 0.00 55 1018.7
20260902174003 93 269 3.0 13.0 0.00 0.00 0.00 54 1018.8
20260902173505 93 180 0.0 8.0 0.00 0.00 0.00 56 1018.7
20260902173010 92 246 4.0 8.0 0.00 0.00 0.00 55 1018.8
20260902172507 92 229 4.0 8.0 0.00 0.00 0.00 56 1018.9
20260902172010 91 242 1.0 9.0 0.00 0.00 0.00 59 1018.9
20260902171510 92 225 3.0 9.0 0.00 0.00 0.00 55 1019.1
20260902171010 93 220 4.0 9.0 0.00 0.00 0.00 55 1019.1
20260902170506 93 260 2.0 10.0 0.00 0.00 0.00 54 1019.0
20260902170011 93 152 2.0 10.0 0.00 0.00 0.00 57 1019.1
20260902165503 93 160 0.0 6.0 0.00 0.00 0.00 59 1019.0
20260902165007 92 167 1.0 6.0 0.00 0.00 0.00 59 1019.0
20260902164515 91 243 2.0 7.0 0.00 0.00 0.00 59 1019.2
20260902164006 91 198 2.0 7.0 0.00 0.00 0.00 60 1019.2
20260902163507 91 203 1.0 8.0 0.00 0.00 0.00 60 1019.2
20260902163012 91 173 0.0 11.0 0.00 0.00 0.00 59 1019.3
20260902162505 92 219 3.0 11.0 0.00 0.00 0.00 59 1019.3
20260902162007 92 212 2.0 7.0 0.00 0.00 0.00 61 1019.3
20260902161513 91 265 3.0 7.0 0.00 0.00 0.00 62 1019.3
20260902161006 91 225 2.0 9.0 0.00 0.00 0.00 59 1019.3
20260902160507 91 227 2.0 9.0 0.00 0.00 0.00 61 1019.4
20260902160017 90 225 3.0 9.0 0.00 0.00 0.00 60 1019.4
20260902155511 90 251 1.0 7.0 0.00 0.00 0.00 63 1019.4
20260902155008 90 213 1.0 8.0 0.00 0.00 0.00 64 1019.4
20260902154521 90 174 2.0 8.0 0.00 0.00 0.00 63 1019.5
20260902154006 90 248 1.0 6.0 0.00 0.00 0.00 65 1019.5
20260902153506 89 248 2.0 6.0 0.00 0.00 0.00 64 1019.5
20260902153014 88 216 2.0 6.0 0.00 0.00 0.00 66 1019.5
20260902152508 88 155 1.0 5.0 0.00 0.00 0.00 69 1019.5
20260902152007 88 152 0.0 5.0 0.00 0.00 0.00 68 1019.6
20260902151514 87 203 1.0 5.0 0.00 0.00 0.00 70 1019.6
20260902151009 87 111 0.0 3.0 0.00 0.00 0.00 72 1019.6
20260902150508 87 110 0.0 3.0 0.00 0.00 0.00 70 1019.6
20260902150018 86 110 0.0 3.0 0.00 0.00 0.00 73 1019.6
20260902145507 85 110 0.0 2.0 0.00 0.00 0.00 76 1019.5
20260902145010 85 110 0.0 2.0 0.00 0.00 0.00 74 1019.4
20260902144518 85 111 0.0 2.0 0.00 0.00 0.00 74 1019.4
20260902144008 85 111 0.0 2.0 0.00 0.00 0.00 74 1019.4
20260902143508 84 111 0.0 2.0 0.00 0.00 0.00 76 1019.6
20260902143015 84 110 0.0 2.0 0.00 0.00 0.00 77 1019.6
20260902142507 84 110 0.0 1.0 0.00 0.00 0.00 75 1019.6
20260902142008 83 110 0.0 1.0 0.00 0.00 0.00 77 1019.7
20260902141531 83 110 0.0 1.0 0.00 0.00 0.00 77 1019.7
20260902141007 82 110 0.0 0.0 0.00 0.00 0.00 79 1019.7
20260902140507 81 110 0.0 0.0 0.00 0.00 0.00 80 1019.6
20260902140020 81 110 0.0 2.0 0.00 0.00 0.00 82 1019.6
20260902135509 80 110 0.0 2.0 0.00 0.00 0.00 82 1019.6
20260902135008 79 110 0.0 2.0 0.00 0.00 0.00 83 1019.6
20260902134517 79 110 0.0 2.0 0.00 0.00 0.00 83 1019.6
20260902134011 79 110 0.0 3.0 0.00 0.00 0.00 84 1019.6
20260902133512 78 110 0.0 3.0 0.00 0.00 0.00 85 1019.6
20260902133023 78 150 0.0 2.0 0.00 0.00 0.00 86 1019.7
20260902132509 77 171 0.0 2.0 0.00 0.00 0.00 86 1019.6
20260902132011 77 171 0.0 2.0 0.00 0.00 0.00 87 1019.6
20260902131522 77 171 0.0 0.0 0.00 0.00 0.00 87 1019.7
20260902131008 76 171 0.0 0.0 0.00 0.00 0.00 88 1019.7
20260902130510 76 171 0.0 0.0 0.00 0.00 0.00 88 1019.7
20260902130023 76 171 0.0 0.0 0.00 0.00 0.00 89 1019.7
20260902125513 75 171 0.0 2.0 0.00 0.00 0.00 89 1019.6
20260902125011 75 171 0.0 2.0 0.00 0.00 0.00 90 1019.7
20260902124523 75 171 0.0 2.0 0.00 0.00 0.00 91 1019.5
20260902124011 74 171 0.0 2.0 0.00 0.00 0.00 91 1019.6
20260902123511 74 152 0.0 0.0 0.00 0.00 0.00 92 1019.5
20260902123023 73 152 0.0 0.0 0.00 0.00 0.00 93 1019.4
20260902122512 73 152 0.0 0.0 0.00 0.00 0.00 94 1019.3
20260902122013 73 152 0.0 0.0 0.00 0.00 0.00 94 1019.3
20260902121524 73 152 0.0 0.0 0.00 0.00 0.00 95 1019.3
20260902121012 72 152 0.0 0.0 0.00 0.00 0.00 95 1019.3
20260902120513 72 152 0.0 0.0 0.00 0.00 0.00 95 1019.2
20260902120003 71 152 0.0 0.0 0.00 0.00 0.00 95 1019.1
20260902115502 71 152 0.0 0.0 0.00 0.00 0.00 95 1019.0
20260902115002 71 152 0.0 0.0 0.00 0.00 0.00 95 1018.9
20260902114504 71 152 0.0 0.0 0.00 0.00 0.00 95 1018.8
20260902114003 71 152 0.0 0.0 0.00 0.00 0.00 95 1018.8
20260902113503 71 152 0.0 0.0 0.00 0.00 0.00 95 1018.8
20260902113009 71 152 0.0 0.0 0.00 0.00 0.00 95 1018.8
20260902112504 71 152 0.0 0.0 0.00 0.00 0.00 95 1018.8
20260902112006 71 152 0.0 0.0 0.00 0.00 0.00 95 1018.7
20260902111512 71 152 0.0 0.0 0.00 0.00 0.00 95 1018.6
20260902111006 71 152 0.0 0.0 0.00 0.00 0.00 95 1018.6
20260902110505 71 152 0.0 0.0 0.00 0.00 0.00 95 1018.5
20260902110018 71 152 0.0 0.0 0.00 0.00 0.00 95 1018.6
20260902105505 71 152 0.0 0.0 0.00 0.00 0.00 95 1018.6
20260902105003 71 152 0.0 0.0 0.00 0.00 0.00 95 1018.6
20260902104505 71 152 0.0 0.0 0.00 0.00 0.00 95 1018.7
20260902104004 71 152 0.0 0.0 0.00 0.00 0.00 95 1018.6
20260902103504 71 152 0.0 0.0 0.00 0.00 0.00 95 1018.6
20260902103008 71 152 0.0 0.0 0.00 0.00 0.00 95 1018.6
20260902102503 71 152 0.0 0.0 0.00 0.00 0.00 95 1018.6
20260902102004 71 152 0.0 0.0 0.00 0.00 0.00 95 1018.6
20260902101508 71 152 0.0 0.0 0.00 0.00 0.00 95 1018.6
20260902101005 72 152 0.0 0.0 0.00 0.00 0.00 95 1018.6
20260902100504 71 152 0.0 0.0 0.00 0.00 0.00 95 1018.6
20260902100014 71 152 0.0 0.0 0.00 0.00 0.00 95 1018.5
20260902095507 71 152 0.0 0.0 0.00 0.00 0.00 95 1018.4
20260902095010 71 152 0.0 0.0 0.00 0.00 0.00 95 1018.4
20260902094524 71 152 0.0 0.0 0.00 0.00 0.00 95 1018.4
20260902094001 71 152 0.0 0.0 0.00 0.00 0.00 95 1018.5
20260902093502 71 152 0.0 0.0 0.00 0.00 0.00 95 1018.4
20260902093003 72 152 0.0 0.0 0.00 0.00 0.00 95 1018.4
20260902092502 72 152 0.0 0.0 0.00 0.00 0.00 95 1018.4
20260902092004 72 152 0.0 0.0 0.00 0.00 0.00 95 1018.4
20260902091507 72 152 0.0 0.0 0.00 0.00 0.00 95 1018.4
20260902091002 72 152 0.0 0.0 0.00 0.00 0.00 95 1018.3
20260902090503 72 152 0.0 0.0 0.00 0.00 0.00 95 1018.3
20260902090013 72 152 0.0 0.0 0.00 0.00 0.00 95 1018.2
20260902085505 72 152 0.0 0.0 0.00 0.00 0.00 95 1018.2
20260902085011 72 152 0.0 0.0 0.00 0.00 0.00 95 1018.2
20260902084516 72 152 0.0 0.0 0.00 0.00 0.00 95 1018.1
20260902084013 72 152 0.0 0.0 0.00 0.00 0.00 95 1018.0
20260902083511 72 152 0.0 0.0 0.00 0.00 0.00 95 1017.9
20260902083004 72 152 0.0 0.0 0.00 0.00 0.00 95 1017.9
20260902082502 72 152 0.0 0.0 0.00 0.00 0.00 95 1017.9
20260902082002 72 152 0.0 0.0 0.00 0.00 0.00 95 1017.9
20260902081514 72 152 0.0 0.0 0.00 0.00 0.00 95 1017.8
20260902081003 72 152 0.0 0.0 0.00 0.00 0.00 95 1017.7
20260902080503 72 152 0.0 0.0 0.00 0.00 0.00 95 1017.8
20260902080008 72 152 0.0 0.0 0.00 0.00 0.00 95 1017.8
20260902075506 72 152 0.0 0.0 0.00 0.00 0.00 95 1017.7
20260902075006 72 152 0.0 0.0 0.00 0.00 0.00 95 1017.7
20260902074516 72 152 0.0 0.0 0.00 0.00 0.00 95 1017.6
20260902074008 72 152 0.0 0.0 0.00 0.00 0.00 94 1017.6
20260902073510 72 152 0.0 0.0 0.00 0.00 0.00 94 1017.6
20260902073024 73 152 0.0 0.0 0.00 0.00 0.00 94 1017.7
20260902072512 73 152 0.0 0.0 0.00 0.00 0.00 94 1017.8
20260902072011 73 152 0.0 0.0 0.00 0.00 0.00 94 1017.8
20260902071510 73 152 0.0 0.0 0.00 0.00 0.00 94 1017.7
20260902071003 73 152 0.0 0.0 0.00 0.00 0.00 94 1017.7
20260902070507 73 152 0.0 0.0 0.00 0.00 0.00 94 1017.7
20260902070009 73 152 0.0 0.0 0.00 0.00 0.00 94 1017.7
20260902065503 73 152 0.0 0.0 0.00 0.00 0.00 94 1017.7
20260902065006 73 152 0.0 0.0 0.00 0.00 0.00 94 1017.7
20260902064515 73 152 0.0 0.0 0.00 0.00 0.00 94 1017.7
20260902064007 73 152 0.0 0.0 0.00 0.00 0.00 94 1017.7
20260902063507 73 152 0.0 0.0 0.00 0.00 0.00 94 1017.7
20260902063018 73 152 0.0 0.0 0.00 0.00 0.00 94 1017.8
20260902062511 73 152 0.0 0.0 0.00 0.00 0.00 94 1017.8
20260902062011 73 152 0.0 0.0 0.00 0.00 0.00 94 1017.8
20260902061530 73 152 0.0 0.0 0.00 0.00 0.00 94 1017.8
20260902061012 73 152 0.0 0.0 0.00 0.00 0.00 93 1017.9
20260902060515 74 152 0.0 0.0 0.00 0.00 0.00 93 1017.8
20260902060015 74 152 0.0 0.0 0.00 0.00 0.00 93 1017.8
20260902055507 74 152 0.0 0.0 0.00 0.00 0.00 93 1017.9
20260902055003 74 152 0.0 0.0 0.00 0.00 0.00 93 1017.9
20260902054514 74 152 0.0 0.0 0.00 0.00 0.00 93 1017.9
20260902054003 74 152 0.0 0.0 0.00 0.00 0.00 93 1017.9
20260902053508 74 152 0.0 0.0 0.00 0.00 0.00 92 1017.9
20260902053032 74 152 0.0 0.0 0.00 0.00 0.00 92 1017.9
20260902052510 74 152 0.0 0.0 0.00 0.00 0.00 92 1017.9
20260902052012 74 152 0.0 0.0 0.00 0.00 0.00 92 1017.9
20260902051526 74 152 0.0 0.0 0.00 0.00 0.00 92 1017.9
20260902051017 75 152 0.0 0.0 0.00 0.00 0.00 92 1017.9
20260902050512 75 152 0.0 0.0 0.00 0.00 0.00 92 1018.0
20260902050028 75 152 0.0 0.0 0.00 0.00 0.00 91 1017.9
20260902045514 75 152 0.0 0.0 0.00 0.00 0.00 91 1017.9
20260902045016 75 152 0.0 0.0 0.00 0.00 0.00 91 1018.0
20260902044511 75 152 0.0 0.0 0.00 0.00 0.00 91 1017.9
20260902044003 75 152 0.0 0.0 0.00 0.00 0.00 91 1017.8
20260902043503 75 152 0.0 0.0 0.00 0.00 0.00 91 1017.9
20260902043012 75 152 0.0 0.0 0.00 0.00 0.00 90 1017.8
20260902042507 75 152 0.0 0.0 0.00 0.00 0.00 90 1017.9
20260902042010 75 152 0.0 0.0 0.00 0.00 0.00 90 1017.9
20260902041524 76 152 0.0 0.0 0.00 0.00 0.00 90 1017.9
20260902041010 76 152 0.0 0.0 0.00 0.00 0.00 90 1017.9
20260902040516 76 152 0.0 0.0 0.00 0.00 0.00 90 1017.8
20260902040028 76 152 0.0 0.0 0.00 0.00 0.00 89 1017.8
20260902035514 76 152 0.0 0.0 0.00 0.00 0.00 89 1017.7
20260902035014 76 152 0.0 0.0 0.00 0.00 0.00 88 1017.8
20260902034531 76 152 0.0 0.0 0.00 0.00 0.00 88 1017.8
20260902034013 77 152 0.0 0.0 0.00 0.00 0.00 88 1017.8
20260902033515 76 152 0.0 0.0 0.00 0.00 0.00 88 1017.8
20260902033015 76 152 0.0 0.0 0.00 0.00 0.00 88 1017.8
20260902032504 76 152 0.0 0.0 0.00 0.00 0.00 88 1017.9
20260902032007 76 152 0.0 0.0 0.00 0.00 0.00 87 1017.9
20260902031515 77 152 0.0 0.0 0.00 0.00 0.00 87 1017.9
20260902031009 77 152 0.0 0.0 0.00 0.00 0.00 87 1017.9
20260902030510 77 152 0.0 0.0 0.00 0.00 0.00 86 1018.0
20260902030003 77 152 0.0 0.0 0.00 0.00 0.00 86 1018.0
20260902025503 77 152 0.0 0.0 0.00 0.00 0.00 86 1018.0
20260902025005 77 152 0.0 0.0 0.00 0.00 0.00 85 1018.0
20260902024507 77 152 0.0 0.0 0.00 0.00 0.00 85 1018.1
20260902024003 78 152 0.0 0.0 0.00 0.00 0.00 85 1018.0
20260902023503 78 152 0.0 0.0 0.00 0.00 0.00 84 1018.1
20260902023006 78 152 0.0 0.0 0.00 0.00 0.00 84 1018.1
20260902022503 78 152 0.0 0.0 0.00 0.00 0.00 83 1018.1
20260902022003 78 152 0.0 0.0 0.00 0.00 0.00 83 1018.0
20260902021513 79 152 0.0 0.0 0.00 0.00 0.00 82 1018.1
20260902021008 79 152 0.0 0.0 0.00 0.00 0.00 82 1018.1
20260902020508 79 152 0.0 0.0 0.00 0.00 0.00 82 1018.1
20260902020003 79 152 0.0 0.0 0.00 0.00 0.00 82 1018.0
20260902015502 79 152 0.0 0.0 0.00 0.00 0.00 82 1018.1
20260902015002 79 152 0.0 0.0 0.00 0.00 0.00 81 1018.0
20260902014511 79 152 0.0 0.0 0.00 0.00 0.00 81 1018.0
20260902014006 80 152 0.0 0.0 0.00 0.00 0.00 81 1017.9
20260902013503 80 152 0.0 0.0 0.00 0.00 0.00 80 1017.9
20260902013005 80 152 0.0 0.0 0.00 0.00 0.00 80 1017.9
20260902012505 80 152 0.0 0.0 0.00 0.00 0.00 79 1017.8
20260902012004 80 152 0.0 0.0 0.00 0.00 0.00 78 1017.8
20260902011512 80 152 0.0 0.0 0.00 0.00 0.00 78 1017.7
20260902011004 81 152 0.0 0.0 0.00 0.00 0.00 77 1017.6
20260902010507 81 152 0.0 0.0 0.00 0.00 0.00 76 1017.6
20260902010014 81 152 0.0 0.0 0.00 0.00 0.00 75 1017.5
20260902005510 81 152 0.0 0.0 0.00 0.00 0.00 75 1017.5
20260902005011 81 152 0.0 0.0 0.00 0.00 0.00 75 1017.4
20260902004506 81 152 0.0 0.0 0.00 0.00 0.00 75 1017.5
20260902004003 82 152 0.0 0.0 0.00 0.00 0.00 74 1017.5
20260902003505 82 152 0.0 0.0 0.00 0.00 0.00 73 1017.5
20260902003007 82 152 0.0 0.0 0.00 0.00 0.00 72 1017.5
20260902002504 82 152 0.0 0.0 0.00 0.00 0.00 72 1017.5
20260902002004 82 152 0.0 0.0 0.00 0.00 0.00 72 1017.5
20260902001512 83 152 0.0 0.0 0.00 0.00 0.00 72 1017.6
20260902001004 83 152 0.0 0.0 0.00 0.00 0.00 71 1017.6
20260902000509 83 152 0.0 0.0 0.00 0.00 0.00 71 1017.7
20260902000012 83 152 0.0 0.0 0.00 0.00 0.00 71 1017.7
20260901235507 84 152 0.0 0.0 0.00 0.00 0.00 71 1017.6
20260901235009 84 152 0.0 0.0 0.00 0.00 0.00 72 1017.6
20260901234543 85 152 0.0 0.0 0.00 0.00 0.00 70 1017.7
20260901234012 85 152 0.0 0.0 0.00 0.00 0.00 69 1017.7
20260901233501 85 152 0.0 0.0 0.00 0.00 0.00 70 1017.7
20260901233002 86 152 0.0 0.0 0.00 0.00 0.00 69 1017.8
20260901232502 86 152 0.0 1.0 0.00 0.00 0.00 68 1017.8
20260901232002 86 152 0.0 1.0 0.00 0.00 0.00 67 1017.8
20260901231507 87 192 0.0 0.0 0.00 0.00 0.00 67 1017.8
20260901231003 87 192 0.0 2.0 0.00 0.00 0.00 66 1017.8
20260901230503 88 192 0.0 2.0 0.00 0.00 0.00 66 1017.7
20260901230010 88 159 0.0 2.0 0.00 0.00 0.00 67 1017.8
20260901225504 88 159 0.0 2.0 0.00 0.00 0.00 68 1017.8
20260901225009 89 159 0.0 2.0 0.00 0.00 0.00 66 1017.8
20260901224523 89 168 0.0 2.0 0.00 0.00 0.00 65 1017.8
20260901224007 89 168 0.0 2.0 0.00 0.00 0.00 65 1017.7
20260901223511 89 228 0.0 1.0 0.00 0.00 0.00 62 1017.7
20260901223035 89 228 0.0 1.0 0.00 0.00 0.00 62 1017.7
20260901222516 90 228 0.0 3.0 0.00 0.00 0.00 61 1017.6
20260901222002 90 150 0.0 4.0 0.00 0.00 0.00 62 1017.6
20260901221509 91 150 0.0 4.0 0.00 0.00 0.00 61 1017.5
20260901221003 91 174 0.0 5.0 0.00 0.00 0.00 59 1017.5
20260901220501 91 203 0.0 5.0 0.00 0.00 0.00 59 1017.6
20260901220010 91 210 0.0 5.0 0.00 0.00 0.00 61 1017.5
20260901215506 91 115 0.0 6.0 0.00 0.00 0.00 61 1017.6
20260901215008 91 202 0.0 6.0 0.00 0.00 0.00 59 1017.6
20260901214513 91 117 1.0 4.0 0.00 0.00 0.00 58 1017.6
20260901214008 92 150 0.0 4.0 0.00 0.00 0.00 60 1017.5
20260901213509 92 171 0.0 7.0 0.00 0.00 0.00 57 1017.6
20260901213022 92 173 0.0 7.0 0.00 0.00 0.00 58 1017.6
20260901212510 92 192 0.0 4.0 0.00 0.00 0.00 57 1017.6
20260901212012 93 192 0.0 6.0 0.00 0.00 0.00 57 1017.7
20260901211533 92 198 0.0 6.0 0.00 0.00 0.00 59 1017.7
20260901211014 92 158 0.0 3.0 0.00 0.00 0.00 61 1017.7
20260901210504 91 166 0.0 4.0 0.00 0.00 0.00 61 1017.7
20260901210007 90 140 0.0 7.0 0.00 0.00 0.00 60 1017.7
20260901205503 92 242 1.0 7.0 0.00 0.00 0.00 56 1017.8
20260901205006 92 244 0.0 5.0 0.00 0.00 0.00 58 1017.8
20260901204514 92 162 0.0 4.0 0.00 0.00 0.00 60 1017.9
20260901204007 91 209 0.0 7.0 0.00 0.00 0.00 59 1018.0